Ponca City, OK

7:00 AM CDT on October 15, 2019 (GMT -0500)
Ponca City Municipal

Weather History for KPNC - June, 2019

Change the Weather History Date:

Wednesday, June 12, 2019

  Actual Average Record
Temperature  
Mean Temperature 72 °F -  
Max Temperature 82 °F 91 °F 106 °F (1953)
Min Temperature 61 °F 67 °F 46 °F (1955)
Cooling Degree Days 6    
Growing Degree Days 22 (Base 50)    
Moisture  
Dew Point 54 °F    
Average Humidity 58    
Maximum Humidity 93    
Minimum Humidity 31    
Precipitation  
Precipitation 0.04 in - - ()
Sea Level Pressure  
Sea Level Pressure 30.01 in    
Wind  
Wind Speed 7 mph (NNW)    
Max Wind Speed 22 mph    
Max Gust Speed 29 mph    
Visibility 10 miles    
Events Rain    
Averages and records for this station are not official NWS values.
T = Trace of Precipitation, MM = Missing Value Source: NWS Daily Summary

Daily Weather History Graph

Daily Weather History Graph

Search for Another Location

Airport or City:

Astronomy

Jun. 12, 2019 Rise Set
Actual Time 6:09 AM CDT 8:47 PM CDT
Civil Twilight 5:38 AM CDT 9:18 PM CDT
Nautical Twilight 5:00 AM CDT 9:56 PM CDT
Astronomical Twilight 4:17 AM CDT 10:38 PM CDT
Moon 4:04 PM CDT (6/12) 3:14 AM CDT (6/12)
Length of Visible Light 15h 39m
Length of Day
14h 38m
Waxing Gibbous, 77% of the Moon is Illuminated
Jun 12
Waxing Gibbous
Jun 17
Full
Jun 25
Last Quarter
Jul 2
New
Jul 9
First Quarter

Hourly Weather History & Observations

Time (CDT) Temp. Dew Point Humidity Pressure Visibility Wind Dir Wind Speed Gust Speed Precip Events Conditions
12:53 AM 70.0 °F 57.0 °F 63% 29.96 in 10.0 mi Calm Calm - N/A   Clear
1:53 AM 66.9 °F 59.0 °F 76% 29.99 in 10.0 mi North 5.8 mph - 0.00 in Rain Light Rain
2:53 AM 66.0 °F 60.1 °F 81% 29.96 in 5.0 mi South 3.5 mph - 0.04 in Rain Rain
3:53 AM 64.9 °F 62.1 °F 90% 29.95 in 10.0 mi North - - 0.00 in   Mostly Cloudy
4:53 AM 64.0 °F 60.1 °F 87% 29.94 in 10.0 mi North - - N/A   Clear
5:53 AM 61.0 °F 59.0 °F 93% 29.97 in 10.0 mi North 4.6 mph - N/A   Clear
6:53 AM 62.1 °F 60.1 °F 93% 29.98 in 10.0 mi Calm Calm - N/A   Clear
7:53 AM 66.0 °F 61.0 °F 84% 29.99 in 10.0 mi North 3.5 mph - N/A   Clear
8:53 AM 70.0 °F 62.1 °F 76% 30.01 in 10.0 mi NNW 11.5 mph - N/A   Clear
9:53 AM 71.1 °F 60.1 °F 68% 30.04 in 10.0 mi North 10.4 mph - N/A   Clear
10:53 AM 75.0 °F 57.0 °F 53% 30.04 in 10.0 mi NNW 17.3 mph 23.0 mph N/A   Clear
11:53 AM 77.0 °F 55.0 °F 47% 30.04 in 10.0 mi NNE 17.3 mph 20.7 mph N/A   Partly Cloudy
12:53 PM 78.1 °F 51.1 °F 39% 30.04 in 10.0 mi North 12.7 mph - N/A   Scattered Clouds
1:53 PM 79.0 °F 50.0 °F 36% 30.02 in 10.0 mi Variable 6.9 mph 24.2 mph N/A   Partly Cloudy
2:53 PM 82.0 °F 50.0 °F 33% 30.01 in 10.0 mi NNW 17.3 mph 25.3 mph N/A   Partly Cloudy
3:53 PM 81.0 °F 50.0 °F 34% 30.00 in 10.0 mi North 21.9 mph 26.5 mph N/A   Partly Cloudy
4:03 PM 81.0 °F 50.0 °F 34% 30.03 in 10.0 mi North 16.1 mph 28.8 mph N/A   Partly Cloudy
4:53 PM 80.1 °F 48.9 °F 34% 29.99 in 10.0 mi NNW 15.0 mph 26.5 mph N/A   Partly Cloudy
5:53 PM 78.1 °F 50.0 °F 37% 30.00 in 10.0 mi NNW 12.7 mph 23.0 mph N/A   Partly Cloudy
6:53 PM 79.0 °F 46.0 °F 31% 30.00 in 10.0 mi North 13.8 mph 27.6 mph N/A   Clear
7:53 PM 77.0 °F 46.9 °F 34% 30.01 in 10.0 mi NNW 12.7 mph 20.7 mph N/A   Clear
8:53 PM 72.0 °F 48.0 °F 43% 30.03 in 10.0 mi North 9.2 mph - N/A   Clear
9:53 PM 68.0 °F 50.0 °F 52% 30.05 in 10.0 mi North 4.6 mph - N/A   Clear
10:53 PM 63.0 °F 52.0 °F 67% 30.08 in 10.0 mi Calm Calm - N/A   Clear
11:53 PM 61.0 °F 53.1 °F 75% 30.09 in 10.0 mi Calm Calm - N/A   Clear